Location: Chakepay
(13.3931°S, 72.1925°W)
Time: 01:30:53
(UTC+00:00)

NOSS 3-4 (A) - Pass Details

Date: 15 November 2019
Orbit: 907 x 1306 km, 63.4° (Epoch: 02 December)

Event Time Altitude Azimuth Distance (km) Brightness Sun altitude
Rises 00:02:26 0° 198° (SSW) 3,788 7.2 -16.1°
Reaches altitude 10° 00:05:12 10° 194° (SSW) 2,777 6.4 -16.7°
Maximum altitude 00:11:31 56° 116° (ESE) 1,111 3.6 -18.1°
Enters shadow 00:14:22 30° 51° (NE) 1,585 4.1 -18.7°
